Year,Month,Day,Hour,Minute,Value (Times are PST for temperature in C)
2010,09,30,00,00,8.90
2010,09,30,00,01,8.90
2010,09,30,00,02,9.00
2010,09,30,00,03,9.00
2010,09,30,00,04,8.90
2010,09,30,00,05,8.90
2010,09,30,00,06,8.90
2010,09,30,00,07,8.80
2010,09,30,00,08,8.70
2010,09,30,00,09,8.70
2010,09,30,00,10,8.70
2010,09,30,00,11,8.70
2010,09,30,00,12,8.60
2010,09,30,00,13,8.60
2010,09,30,00,14,8.50
2010,09,30,00,15,8.50
2010,09,30,00,16,8.40
2010,09,30,00,17,8.40
2010,09,30,00,18,8.40
2010,09,30,00,19,8.30
2010,09,30,00,20,8.40
2010,09,30,00,21,8.40
2010,09,30,00,22,8.50
2010,09,30,00,23,8.50
2010,09,30,00,24,8.60
2010,09,30,00,25,8.70
2010,09,30,00,26,8.90
2010,09,30,00,27,8.90
2010,09,30,00,28,9.00
2010,09,30,00,29,9.00
2010,09,30,00,30,8.90
2010,09,30,00,31,8.90
2010,09,30,00,32,8.90
2010,09,30,00,33,8.90
2010,09,30,00,34,8.90
2010,09,30,00,35,9.00
2010,09,30,00,36,9.00
2010,09,30,00,37,9.00
2010,09,30,00,38,9.00
2010,09,30,00,39,9.00
2010,09,30,00,40,8.90
2010,09,30,00,41,8.90
2010,09,30,00,42,8.80
2010,09,30,00,43,8.70
2010,09,30,00,44,8.70
2010,09,30,00,45,8.70
2010,09,30,00,46,8.70
2010,09,30,00,47,8.70
2010,09,30,00,48,8.70
2010,09,30,00,49,8.70
2010,09,30,00,50,8.80
2010,09,30,00,51,9.00
2010,09,30,00,52,9.10
2010,09,30,00,53,9.20
2010,09,30,00,54,9.20
2010,09,30,00,55,9.20
2010,09,30,00,56,9.20
2010,09,30,00,57,9.20
2010,09,30,00,58,9.10
2010,09,30,00,59,9.10
2010,09,30,01,00,9.10
2010,09,30,01,01,9.10
2010,09,30,01,02,9.10
2010,09,30,01,03,9.10
2010,09,30,01,04,9.20
2010,09,30,01,05,9.20
2010,09,30,01,06,9.30
2010,09,30,01,07,9.30
2010,09,30,01,08,9.20
2010,09,30,01,09,9.20
2010,09,30,01,10,9.20
2010,09,30,01,11,9.20
2010,09,30,01,12,9.20
2010,09,30,01,13,9.20
2010,09,30,01,14,9.20
2010,09,30,01,15,9.20
2010,09,30,01,16,9.20
2010,09,30,01,17,9.20
2010,09,30,01,18,9.10
2010,09,30,01,19,9.00
2010,09,30,01,20,9.00
2010,09,30,01,21,9.10
2010,09,30,01,22,9.20
2010,09,30,01,23,9.30
2010,09,30,01,24,9.30
2010,09,30,01,25,9.30
2010,09,30,01,26,9.20
2010,09,30,01,27,9.10
2010,09,30,01,28,9.00
2010,09,30,01,29,9.00
2010,09,30,01,30,9.00
2010,09,30,01,31,9.00
2010,09,30,01,32,9.00
2010,09,30,01,33,9.00
2010,09,30,01,34,9.10
2010,09,30,01,35,9.20
2010,09,30,01,36,9.20
2010,09,30,01,37,9.20
2010,09,30,01,38,9.20
2010,09,30,01,39,9.10
2010,09,30,01,40,9.00
2010,09,30,01,41,8.90
2010,09,30,01,42,8.90
2010,09,30,01,43,8.90
2010,09,30,01,44,8.90
2010,09,30,01,45,8.90
2010,09,30,01,46,8.80
2010,09,30,01,47,8.80
2010,09,30,01,48,8.80
2010,09,30,01,49,8.70
2010,09,30,01,50,8.70
2010,09,30,01,51,8.70
2010,09,30,01,52,8.70
2010,09,30,01,53,8.70
2010,09,30,01,54,8.70
2010,09,30,01,55,8.70
2010,09,30,01,56,8.70
2010,09,30,01,57,8.70
2010,09,30,01,58,8.70
2010,09,30,01,59,8.70
2010,09,30,02,00,8.60
2010,09,30,02,01,8.60
2010,09,30,02,02,8.60
2010,09,30,02,03,8.50
2010,09,30,02,04,8.40
2010,09,30,02,05,8.30
2010,09,30,02,06,8.20
2010,09,30,02,07,8.20
2010,09,30,02,08,8.20
2010,09,30,02,09,8.20
2010,09,30,02,10,8.20
2010,09,30,02,11,8.30
2010,09,30,02,12,8.30
2010,09,30,02,13,8.30
2010,09,30,02,14,8.30
2010,09,30,02,15,8.30
2010,09,30,02,16,8.40
2010,09,30,02,17,8.40
2010,09,30,02,18,8.50
2010,09,30,02,19,8.40
2010,09,30,02,20,8.30
2010,09,30,02,21,8.30
2010,09,30,02,22,8.30
2010,09,30,02,23,8.40
2010,09,30,02,24,8.40
2010,09,30,02,25,8.40
2010,09,30,02,26,8.50
2010,09,30,02,27,8.50
2010,09,30,02,28,8.50
2010,09,30,02,29,8.60
2010,09,30,02,30,8.70
2010,09,30,02,31,8.70
2010,09,30,02,32,8.70
2010,09,30,02,33,8.70
2010,09,30,02,34,8.70
2010,09,30,02,35,8.80
2010,09,30,02,36,8.90
2010,09,30,02,37,8.90
2010,09,30,02,38,9.00
2010,09,30,02,39,9.10
2010,09,30,02,40,9.20
2010,09,30,02,41,9.20
2010,09,30,02,42,9.20
2010,09,30,02,43,9.20
2010,09,30,02,44,9.20
2010,09,30,02,45,9.20
2010,09,30,02,46,9.20
2010,09,30,02,47,9.20
2010,09,30,02,48,9.20
2010,09,30,02,49,9.20
2010,09,30,02,50,9.20
2010,09,30,02,51,9.20
2010,09,30,02,52,9.10
2010,09,30,02,53,9.10
2010,09,30,02,54,9.20
2010,09,30,02,55,9.20
2010,09,30,02,56,9.20
2010,09,30,02,57,9.20
2010,09,30,02,58,9.20
2010,09,30,02,59,9.20
2010,09,30,03,00,9.20
2010,09,30,03,01,9.20
2010,09,30,03,02,9.10
2010,09,30,03,03,9.10
2010,09,30,03,04,8.90
2010,09,30,03,05,8.90
2010,09,30,03,06,8.80
2010,09,30,03,07,8.80
2010,09,30,03,08,8.80
2010,09,30,03,09,8.80
2010,09,30,03,10,8.90
2010,09,30,03,11,8.90
2010,09,30,03,12,9.00
2010,09,30,03,13,9.00
2010,09,30,03,14,9.00
2010,09,30,03,15,9.00
2010,09,30,03,16,9.00
2010,09,30,03,17,9.00
2010,09,30,03,18,9.00
2010,09,30,03,19,9.00
2010,09,30,03,20,8.90
2010,09,30,03,21,8.90
2010,09,30,03,22,8.80
2010,09,30,03,23,8.80
2010,09,30,03,24,8.80
2010,09,30,03,25,8.80
2010,09,30,03,26,8.80
2010,09,30,03,27,8.80
2010,09,30,03,28,8.80
2010,09,30,03,29,8.80
2010,09,30,03,30,8.80
2010,09,30,03,31,8.80
2010,09,30,03,32,8.80
2010,09,30,03,33,8.70
2010,09,30,03,34,8.70
2010,09,30,03,35,8.70
2010,09,30,03,36,8.70
2010,09,30,03,37,8.70
2010,09,30,03,38,8.70
2010,09,30,03,39,8.70
2010,09,30,03,40,8.80
2010,09,30,03,41,8.80
2010,09,30,03,42,8.90
2010,09,30,03,43,9.00
2010,09,30,03,44,9.10
2010,09,30,03,45,9.20
2010,09,30,03,46,9.30
2010,09,30,03,47,9.40
2010,09,30,03,48,9.50
2010,09,30,03,49,9.50
2010,09,30,03,50,9.60
2010,09,30,03,51,9.60
2010,09,30,03,52,9.70
2010,09,30,03,53,9.70
2010,09,30,03,54,9.80
2010,09,30,03,55,9.80
2010,09,30,03,56,9.80
2010,09,30,03,57,9.80
2010,09,30,03,58,9.80
2010,09,30,03,59,9.80
2010,09,30,04,00,9.90
2010,09,30,04,01,9.90
2010,09,30,04,02,9.90
2010,09,30,04,03,9.90
2010,09,30,04,04,10.00
2010,09,30,04,05,10.10
2010,09,30,04,06,10.10
2010,09,30,04,07,10.10
2010,09,30,04,08,10.10
2010,09,30,04,09,10.10
2010,09,30,04,10,10.10
2010,09,30,04,11,10.00
2010,09,30,04,12,9.90
2010,09,30,04,13,9.90
2010,09,30,04,14,9.90
2010,09,30,04,15,9.90
2010,09,30,04,16,9.90
2010,09,30,04,17,9.90
2010,09,30,04,18,9.80
2010,09,30,04,19,9.80
2010,09,30,04,20,9.80
2010,09,30,04,21,9.70
2010,09,30,04,22,9.70
2010,09,30,04,23,9.70
2010,09,30,04,24,9.60
2010,09,30,04,25,9.60
2010,09,30,04,26,9.50
2010,09,30,04,27,9.50
2010,09,30,04,28,9.50
2010,09,30,04,29,9.40
2010,09,30,04,30,9.40
2010,09,30,04,31,9.40
2010,09,30,04,32,9.40
2010,09,30,04,33,9.40
2010,09,30,04,34,9.40
2010,09,30,04,35,9.40
2010,09,30,04,36,9.40
2010,09,30,04,37,9.50
2010,09,30,04,38,9.50
2010,09,30,04,39,9.50
2010,09,30,04,40,9.60
2010,09,30,04,41,9.60
2010,09,30,04,42,9.70
2010,09,30,04,43,9.70
2010,09,30,04,44,9.70
2010,09,30,04,45,9.70
2010,09,30,04,46,9.70
2010,09,30,04,47,9.70
2010,09,30,04,48,9.70
2010,09,30,04,49,9.60
2010,09,30,04,50,9.60
2010,09,30,04,51,9.60
2010,09,30,04,52,9.60
2010,09,30,04,53,9.60
2010,09,30,04,54,9.50
2010,09,30,04,55,9.50
2010,09,30,04,56,9.50
2010,09,30,04,57,9.50
2010,09,30,04,58,9.40
2010,09,30,04,59,9.40
2010,09,30,05,00,9.40
2010,09,30,05,01,9.30
2010,09,30,05,02,9.30
2010,09,30,05,03,9.20
2010,09,30,05,04,9.20
2010,09,30,05,05,9.20
2010,09,30,05,06,9.10
2010,09,30,05,07,9.10
2010,09,30,05,08,9.00
2010,09,30,05,09,9.00
2010,09,30,05,10,8.90
2010,09,30,05,11,8.90
2010,09,30,05,12,8.90
2010,09,30,05,13,8.80
2010,09,30,05,14,8.80
2010,09,30,05,15,8.90
2010,09,30,05,16,8.90
2010,09,30,05,17,8.90
2010,09,30,05,18,9.00
2010,09,30,05,19,9.00
2010,09,30,05,20,9.00
2010,09,30,05,21,9.00
2010,09,30,05,22,9.10
2010,09,30,05,23,9.10
2010,09,30,05,24,9.10
2010,09,30,05,25,9.10
2010,09,30,05,26,9.00
2010,09,30,05,27,9.00
2010,09,30,05,28,9.00
2010,09,30,05,29,9.00
2010,09,30,05,30,9.00
2010,09,30,05,31,9.00
2010,09,30,05,32,9.00
2010,09,30,05,33,9.00
2010,09,30,05,34,9.00
2010,09,30,05,35,9.00
2010,09,30,05,36,9.10
2010,09,30,05,37,9.10
2010,09,30,05,38,9.20
2010,09,30,05,39,9.20
2010,09,30,05,40,9.20
2010,09,30,05,41,9.20
2010,09,30,05,42,9.20
2010,09,30,05,43,9.20
2010,09,30,05,44,9.20
2010,09,30,05,45,9.20
2010,09,30,05,46,9.30
2010,09,30,05,47,9.30
2010,09,30,05,48,9.30
2010,09,30,05,49,9.30
2010,09,30,05,50,9.20
2010,09,30,05,51,9.20
2010,09,30,05,52,9.20
2010,09,30,05,53,9.20
2010,09,30,05,54,9.30
2010,09,30,05,55,9.20
2010,09,30,05,56,9.20
2010,09,30,05,57,9.20
2010,09,30,05,58,9.20
2010,09,30,05,59,9.20
2010,09,30,06,00,9.20
2010,09,30,06,01,9.20
2010,09,30,06,02,9.20
2010,09,30,06,03,9.20
2010,09,30,06,04,9.20
2010,09,30,06,05,9.20
2010,09,30,06,06,9.20
2010,09,30,06,07,9.20
2010,09,30,06,08,9.20
2010,09,30,06,09,9.20
2010,09,30,06,10,9.20
2010,09,30,06,11,9.20
2010,09,30,06,12,9.20
2010,09,30,06,13,9.20
2010,09,30,06,14,9.20
2010,09,30,06,15,9.20
2010,09,30,06,16,9.20
2010,09,30,06,17,9.30
2010,09,30,06,18,9.30
2010,09,30,06,19,9.30
2010,09,30,06,20,9.30
2010,09,30,06,21,9.30
2010,09,30,06,22,9.40
2010,09,30,06,23,9.40
2010,09,30,06,24,9.40
2010,09,30,06,25,9.40
2010,09,30,06,26,9.40
2010,09,30,06,27,9.40
2010,09,30,06,28,9.40
2010,09,30,06,29,9.40
2010,09,30,06,30,9.40
2010,09,30,06,31,9.40
2010,09,30,06,32,9.40
2010,09,30,06,33,9.40
2010,09,30,06,34,9.40
2010,09,30,06,35,9.40
2010,09,30,06,36,9.40
2010,09,30,06,37,9.40
2010,09,30,06,38,9.40
2010,09,30,06,39,9.40
2010,09,30,06,40,9.40
2010,09,30,06,41,9.40
2010,09,30,06,42,9.40
2010,09,30,06,43,9.40
2010,09,30,06,44,9.40
2010,09,30,06,45,9.40
2010,09,30,06,46,9.40
2010,09,30,06,47,9.40
2010,09,30,06,48,9.40
2010,09,30,06,49,9.40
2010,09,30,06,50,9.40
2010,09,30,06,51,9.40
2010,09,30,06,52,9.30
2010,09,30,06,53,9.30
2010,09,30,06,54,9.30
2010,09,30,06,55,9.20
2010,09,30,06,56,9.10
2010,09,30,06,57,9.10
2010,09,30,06,58,9.00
2010,09,30,06,59,9.00
2010,09,30,07,00,9.00
2010,09,30,07,01,9.00
2010,09,30,07,02,8.90
2010,09,30,07,03,8.90
2010,09,30,07,04,8.90
2010,09,30,07,05,8.90
2010,09,30,07,06,8.90
2010,09,30,07,07,8.90
2010,09,30,07,08,8.90
2010,09,30,07,09,8.90
2010,09,30,07,10,8.90
2010,09,30,07,11,8.90
2010,09,30,07,12,8.80
2010,09,30,07,13,8.80
2010,09,30,07,14,8.80
2010,09,30,07,15,8.70
2010,09,30,07,16,8.70
2010,09,30,07,17,8.70
2010,09,30,07,18,8.70
2010,09,30,07,19,8.70
2010,09,30,07,20,8.70
2010,09,30,07,21,8.70
2010,09,30,07,22,8.70
2010,09,30,07,23,8.70
2010,09,30,07,24,8.70
2010,09,30,07,25,8.60
2010,09,30,07,26,8.60
2010,09,30,07,27,8.60
2010,09,30,07,28,8.70
2010,09,30,07,29,8.60
2010,09,30,07,30,8.70
2010,09,30,07,31,8.70
2010,09,30,07,32,8.70
2010,09,30,07,33,8.70
2010,09,30,07,34,8.70
2010,09,30,07,35,8.70
2010,09,30,07,36,8.70
2010,09,30,07,37,8.70
2010,09,30,07,38,8.70
2010,09,30,07,39,8.70
2010,09,30,07,40,8.70
2010,09,30,07,41,8.70
2010,09,30,07,42,8.70
2010,09,30,07,43,8.70
2010,09,30,07,44,8.70
2010,09,30,07,45,8.70
2010,09,30,07,46,8.70
2010,09,30,07,47,8.80
2010,09,30,07,48,8.80
2010,09,30,07,49,8.90
2010,09,30,07,50,8.90
2010,09,30,07,51,9.00
2010,09,30,07,52,9.00
2010,09,30,07,53,9.10
2010,09,30,07,54,9.10
2010,09,30,07,55,9.20
2010,09,30,07,56,9.20
2010,09,30,07,57,9.30
2010,09,30,07,58,9.40
2010,09,30,07,59,9.40
2010,09,30,08,00,9.50
2010,09,30,08,01,9.60
2010,09,30,08,02,9.60
2010,09,30,08,03,9.70
2010,09,30,08,04,9.70
2010,09,30,08,05,9.70
2010,09,30,08,06,9.70
2010,09,30,08,07,9.70
2010,09,30,08,08,9.70
2010,09,30,08,09,9.80
2010,09,30,08,10,9.80
2010,09,30,08,11,9.70
2010,09,30,08,12,9.70
2010,09,30,08,13,9.70
2010,09,30,08,14,9.70
2010,09,30,08,15,9.70
2010,09,30,08,16,9.70
2010,09,30,08,17,9.70
2010,09,30,08,18,9.70
2010,09,30,08,19,9.80
2010,09,30,08,20,9.80
2010,09,30,08,21,9.80
2010,09,30,08,22,9.90
2010,09,30,08,23,9.90
2010,09,30,08,24,9.90
2010,09,30,08,25,10.00
2010,09,30,08,26,10.10
2010,09,30,08,27,10.10
2010,09,30,08,28,10.20
2010,09,30,08,29,10.30
2010,09,30,08,30,10.30
2010,09,30,08,31,10.40
2010,09,30,08,32,10.40
2010,09,30,08,33,10.50
2010,09,30,08,34,10.60
2010,09,30,08,35,10.60
2010,09,30,08,36,10.60
2010,09,30,08,37,10.70
2010,09,30,08,38,10.70
2010,09,30,08,39,10.80
2010,09,30,08,40,10.80
2010,09,30,08,41,10.90
2010,09,30,08,42,10.90
2010,09,30,08,43,11.10
2010,09,30,08,44,11.10
2010,09,30,08,45,11.20
2010,09,30,08,46,11.20
2010,09,30,08,47,11.30
2010,09,30,08,48,11.40
2010,09,30,08,49,11.40
2010,09,30,08,50,11.50
2010,09,30,08,51,11.60
2010,09,30,08,52,11.60
2010,09,30,08,53,11.60
2010,09,30,08,54,11.70
2010,09,30,08,55,11.80
2010,09,30,08,56,11.80
2010,09,30,08,57,11.80
2010,09,30,08,58,11.90
2010,09,30,08,59,11.90
2010,09,30,09,00,12.00
2010,09,30,09,01,12.00
2010,09,30,09,02,12.10
2010,09,30,09,03,12.20
2010,09,30,09,04,12.20
2010,09,30,09,05,12.30
2010,09,30,09,06,12.30
2010,09,30,09,07,12.30
2010,09,30,09,08,12.40
2010,09,30,09,09,12.40
2010,09,30,09,10,12.40
2010,09,30,09,11,12.50
2010,09,30,09,12,12.50
2010,09,30,09,13,12.50
2010,09,30,09,14,12.60
2010,09,30,09,15,12.60
2010,09,30,09,16,12.70
2010,09,30,09,17,12.70
2010,09,30,09,18,12.80
2010,09,30,09,19,12.80
2010,09,30,09,20,12.80
2010,09,30,09,21,12.80
2010,09,30,09,22,12.90
2010,09,30,09,23,12.90
2010,09,30,09,24,13.00
2010,09,30,09,25,13.00
2010,09,30,09,26,13.00
2010,09,30,09,27,13.10
2010,09,30,09,28,13.10
2010,09,30,09,29,13.10
2010,09,30,09,30,13.20
2010,09,30,09,31,13.20
2010,09,30,09,32,13.20
2010,09,30,09,33,13.30
2010,09,30,09,34,13.30
2010,09,30,09,35,13.30
2010,09,30,09,36,13.30
2010,09,30,09,37,13.40
2010,09,30,09,38,13.40
2010,09,30,09,39,13.40
2010,09,30,09,40,13.40
2010,09,30,09,41,13.50
2010,09,30,09,42,13.50
2010,09,30,09,43,13.50
2010,09,30,09,44,13.50
2010,09,30,09,45,13.50
2010,09,30,09,46,13.50
2010,09,30,09,47,13.60
2010,09,30,09,48,13.60
2010,09,30,09,49,13.60
2010,09,30,09,50,13.60
2010,09,30,09,51,13.60
2010,09,30,09,52,13.60
2010,09,30,09,53,13.60
2010,09,30,09,54,13.70
2010,09,30,09,55,13.70
2010,09,30,09,56,13.70
2010,09,30,09,57,13.70
2010,09,30,09,58,13.70
2010,09,30,09,59,13.80
2010,09,30,10,00,13.80
2010,09,30,10,01,13.80
2010,09,30,10,02,13.90
2010,09,30,10,03,13.90
2010,09,30,10,04,14.00
2010,09,30,10,05,14.00
2010,09,30,10,06,14.10
2010,09,30,10,07,14.10
2010,09,30,10,08,14.20
2010,09,30,10,09,14.20
2010,09,30,10,10,14.20
2010,09,30,10,11,14.20
2010,09,30,10,12,14.20
2010,09,30,10,13,14.20
2010,09,30,10,14,14.20
2010,09,30,10,15,14.30
2010,09,30,10,16,14.30
2010,09,30,10,17,14.40
2010,09,30,10,18,14.40
2010,09,30,10,19,14.40
2010,09,30,10,20,14.50
2010,09,30,10,21,14.50
2010,09,30,10,22,14.60
2010,09,30,10,23,14.60
2010,09,30,10,24,14.60
2010,09,30,10,25,14.70
2010,09,30,10,26,14.70
2010,09,30,10,27,14.80
2010,09,30,10,28,14.80
2010,09,30,10,29,14.80
2010,09,30,10,30,14.90
2010,09,30,10,31,14.90
2010,09,30,10,32,15.00
2010,09,30,10,33,15.00
2010,09,30,10,34,15.10
2010,09,30,10,35,15.10
2010,09,30,10,36,15.20
2010,09,30,10,37,15.30
2010,09,30,10,38,15.30
2010,09,30,10,39,15.40
2010,09,30,10,40,15.40
2010,09,30,10,41,15.50
2010,09,30,10,42,15.50
2010,09,30,10,43,15.60
2010,09,30,10,44,15.60
2010,09,30,10,45,15.70
2010,09,30,10,46,15.80
2010,09,30,10,47,15.80
2010,09,30,10,48,15.90
2010,09,30,10,49,16.00
2010,09,30,10,50,16.10
2010,09,30,10,51,16.10
2010,09,30,10,52,16.10
2010,09,30,10,53,16.10
2010,09,30,10,54,16.10
2010,09,30,10,55,16.20
2010,09,30,10,56,16.20
2010,09,30,10,57,16.20
2010,09,30,10,58,16.20
2010,09,30,10,59,16.20
2010,09,30,11,00,16.20
2010,09,30,11,01,16.20
2010,09,30,11,02,16.20
2010,09,30,11,03,16.30
2010,09,30,11,04,16.30
2010,09,30,11,05,16.40
2010,09,30,11,06,16.40
2010,09,30,11,07,16.40
2010,09,30,11,08,16.50
2010,09,30,11,09,16.60
2010,09,30,11,10,16.70
2010,09,30,11,11,16.70
2010,09,30,11,12,16.70
2010,09,30,11,13,16.90
2010,09,30,11,14,16.90
2010,09,30,11,15,17.00
2010,09,30,11,16,17.00
2010,09,30,11,17,17.10
2010,09,30,11,18,17.10
2010,09,30,11,19,17.10
2010,09,30,11,20,17.00
2010,09,30,11,21,17.00
2010,09,30,11,22,17.00
2010,09,30,11,23,17.00
2010,09,30,11,24,17.00
2010,09,30,11,25,17.00
2010,09,30,11,26,16.90
2010,09,30,11,27,16.90
2010,09,30,11,28,16.90
2010,09,30,11,29,16.80
2010,09,30,11,30,16.80
2010,09,30,11,31,16.70
2010,09,30,11,32,16.70
2010,09,30,11,33,16.70
2010,09,30,11,34,16.70
2010,09,30,11,35,16.70
2010,09,30,11,36,16.70
2010,09,30,11,37,16.70
2010,09,30,11,38,16.70
2010,09,30,11,39,16.70
2010,09,30,11,40,16.60
2010,09,30,11,41,16.70
2010,09,30,11,42,16.70
2010,09,30,11,43,16.70
2010,09,30,11,44,16.70
2010,09,30,11,45,16.70
2010,09,30,11,46,16.70
2010,09,30,11,47,16.70
2010,09,30,11,48,16.70
2010,09,30,11,49,16.70
2010,09,30,11,50,16.70
2010,09,30,11,51,16.70
2010,09,30,11,52,16.70
2010,09,30,11,53,16.70
2010,09,30,11,54,16.70
2010,09,30,11,55,16.70
2010,09,30,11,56,16.70
2010,09,30,11,57,16.70
2010,09,30,11,58,16.70
2010,09,30,11,59,16.70
2010,09,30,12,00,16.70
2010,09,30,12,01,16.80
2010,09,30,12,02,16.80
2010,09,30,12,03,16.80
2010,09,30,12,04,17.00
2010,09,30,12,05,17.10
2010,09,30,12,06,17.30
2010,09,30,12,07,17.40
2010,09,30,12,08,17.40
2010,09,30,12,09,17.40
2010,09,30,12,10,17.40
2010,09,30,12,11,17.40
2010,09,30,12,12,17.40
2010,09,30,12,13,17.30
2010,09,30,12,14,17.30
2010,09,30,12,15,17.30
2010,09,30,12,16,17.30
2010,09,30,12,17,17.30
2010,09,30,12,18,17.30
2010,09,30,12,19,17.30
2010,09,30,12,20,17.30
2010,09,30,12,21,17.30
2010,09,30,12,22,17.30
2010,09,30,12,23,17.30
2010,09,30,12,24,17.40
2010,09,30,12,25,17.40
2010,09,30,12,26,17.40
2010,09,30,12,27,17.40
2010,09,30,12,28,17.40
2010,09,30,12,29,17.40
2010,09,30,12,30,17.40
2010,09,30,12,31,17.40
2010,09,30,12,32,17.40
2010,09,30,12,33,17.40
2010,09,30,12,34,17.50
2010,09,30,12,35,17.50
2010,09,30,12,36,17.60
2010,09,30,12,37,17.70
2010,09,30,12,38,17.80
2010,09,30,12,39,17.90
2010,09,30,12,40,17.90
2010,09,30,12,41,17.90
2010,09,30,12,42,17.90
2010,09,30,12,43,17.90
2010,09,30,12,44,18.00
2010,09,30,12,45,18.10
2010,09,30,12,46,18.10
2010,09,30,12,47,18.10
2010,09,30,12,48,18.10
2010,09,30,12,49,18.10
2010,09,30,12,50,18.10
2010,09,30,12,51,18.10
2010,09,30,12,52,18.10
2010,09,30,12,53,18.10
2010,09,30,12,54,18.10
2010,09,30,12,55,18.10
2010,09,30,12,56,18.10
2010,09,30,12,57,18.10
2010,09,30,12,58,18.10
2010,09,30,12,59,18.20
2010,09,30,13,00,18.20
2010,09,30,13,01,18.20
2010,09,30,13,02,18.30
2010,09,30,13,03,18.30
2010,09,30,13,04,18.30
2010,09,30,13,05,18.30
2010,09,30,13,06,18.30
2010,09,30,13,07,18.30
2010,09,30,13,08,18.40
2010,09,30,13,09,18.40
2010,09,30,13,10,18.40
2010,09,30,13,11,18.40
2010,09,30,13,12,18.60
2010,09,30,13,13,18.70
2010,09,30,13,14,18.70
2010,09,30,13,15,18.80
2010,09,30,13,16,18.80
2010,09,30,13,17,18.90
2010,09,30,13,18,18.90
2010,09,30,13,19,18.90
2010,09,30,13,20,18.90
2010,09,30,13,21,18.90
2010,09,30,13,22,18.90
2010,09,30,13,23,18.90
2010,09,30,13,24,18.90
2010,09,30,13,25,18.90
2010,09,30,13,26,18.90
2010,09,30,13,27,18.90
2010,09,30,13,28,18.90
2010,09,30,13,29,19.10
2010,09,30,13,30,19.10
2010,09,30,13,31,19.10
2010,09,30,13,32,19.10
2010,09,30,13,33,19.10
2010,09,30,13,34,19.10
2010,09,30,13,35,19.10
2010,09,30,13,36,19.10
2010,09,30,13,37,19.10
2010,09,30,13,38,19.10
2010,09,30,13,39,19.10
2010,09,30,13,40,19.20
2010,09,30,13,41,19.10
2010,09,30,13,42,19.10
2010,09,30,13,43,19.10
2010,09,30,13,44,19.10
2010,09,30,13,45,19.10
2010,09,30,13,46,19.10
2010,09,30,13,47,19.10
2010,09,30,13,48,19.10
2010,09,30,13,49,19.10
2010,09,30,13,50,19.10
2010,09,30,13,51,19.10
2010,09,30,13,52,19.10
2010,09,30,13,53,19.10
2010,09,30,13,54,19.10
2010,09,30,13,55,19.10
2010,09,30,13,56,19.10
2010,09,30,13,57,19.20
2010,09,30,13,58,19.20
2010,09,30,13,59,19.10
2010,09,30,14,00,19.10
2010,09,30,14,01,19.10
2010,09,30,14,02,19.10
2010,09,30,14,03,19.10
2010,09,30,14,04,19.10
2010,09,30,14,05,19.10
2010,09,30,14,06,19.10
2010,09,30,14,07,19.10
2010,09,30,14,08,19.00
2010,09,30,14,09,18.90
2010,09,30,14,10,18.90
2010,09,30,14,11,18.90
2010,09,30,14,12,18.90
2010,09,30,14,13,18.90
2010,09,30,14,14,18.90
2010,09,30,14,15,18.90
2010,09,30,14,16,18.90
2010,09,30,14,17,19.00
2010,09,30,14,18,19.10
2010,09,30,14,19,19.10
2010,09,30,14,20,19.10
2010,09,30,14,21,19.10
2010,09,30,14,22,19.10
2010,09,30,14,23,19.10
2010,09,30,14,24,19.10
2010,09,30,14,25,19.10
2010,09,30,14,26,19.20
2010,09,30,14,27,19.20
2010,09,30,14,28,19.20
2010,09,30,14,29,19.20
2010,09,30,14,30,19.20
2010,09,30,14,31,19.20
2010,09,30,14,32,19.20
2010,09,30,14,33,19.20
2010,09,30,14,34,19.20
2010,09,30,14,35,19.20
2010,09,30,14,36,19.20
2010,09,30,14,37,19.30
2010,09,30,14,38,19.30
2010,09,30,14,39,19.30
2010,09,30,14,40,19.20
2010,09,30,14,41,19.20
2010,09,30,14,42,19.20
2010,09,30,14,43,19.20
2010,09,30,14,44,19.30
2010,09,30,14,45,19.30
2010,09,30,14,46,19.30
2010,09,30,14,47,19.40
2010,09,30,14,48,19.40
2010,09,30,14,49,19.40
2010,09,30,14,50,19.50
2010,09,30,14,51,19.50
2010,09,30,14,52,19.60
2010,09,30,14,53,19.60
2010,09,30,14,54,19.50
2010,09,30,14,55,19.50
2010,09,30,14,56,19.50
2010,09,30,14,57,19.50
2010,09,30,14,58,19.50
2010,09,30,14,59,19.50
2010,09,30,15,00,19.50
2010,09,30,15,01,19.50
2010,09,30,15,02,19.50
2010,09,30,15,03,19.50
2010,09,30,15,04,19.50
2010,09,30,15,05,19.50
2010,09,30,15,06,19.50
2010,09,30,15,07,19.50
2010,09,30,15,08,19.50
2010,09,30,15,09,19.50
2010,09,30,15,10,19.50
2010,09,30,15,11,19.50
2010,09,30,15,12,19.50
2010,09,30,15,13,19.60
2010,09,30,15,14,19.60
2010,09,30,15,15,19.60
2010,09,30,15,16,19.70
2010,09,30,15,17,19.70
2010,09,30,15,18,19.70
2010,09,30,15,19,19.80
2010,09,30,15,20,19.90
2010,09,30,15,21,19.90
2010,09,30,15,22,19.90
2010,09,30,15,23,19.90
2010,09,30,15,24,19.90
2010,09,30,15,25,19.90
2010,09,30,15,26,19.90
2010,09,30,15,27,19.90
2010,09,30,15,28,19.90
2010,09,30,15,29,19.90
2010,09,30,15,30,19.90
2010,09,30,15,31,19.90
2010,09,30,15,32,19.90
2010,09,30,15,33,20.00
2010,09,30,15,34,20.10
2010,09,30,15,35,20.10
2010,09,30,15,36,20.20
2010,09,30,15,37,20.20
2010,09,30,15,38,20.20
2010,09,30,15,39,20.20
2010,09,30,15,40,20.20
2010,09,30,15,41,20.20
2010,09,30,15,42,20.20
2010,09,30,15,43,20.20
2010,09,30,15,44,20.20
2010,09,30,15,45,20.20
2010,09,30,15,46,20.20
2010,09,30,15,47,20.20
2010,09,30,15,48,20.20
2010,09,30,15,49,20.20
2010,09,30,15,50,20.20
2010,09,30,15,51,20.20
2010,09,30,15,52,20.20
2010,09,30,15,53,20.20
2010,09,30,15,54,20.20
2010,09,30,15,55,20.20
2010,09,30,15,56,20.20
2010,09,30,15,57,20.30
2010,09,30,15,58,20.30
2010,09,30,15,59,20.30
2010,09,30,16,00,20.40
2010,09,30,16,01,20.40
2010,09,30,16,02,20.50
2010,09,30,16,03,20.50
2010,09,30,16,04,20.50
2010,09,30,16,05,20.50
2010,09,30,16,06,20.60
2010,09,30,16,07,20.60
2010,09,30,16,08,20.60
2010,09,30,16,09,20.60
2010,09,30,16,10,20.60
2010,09,30,16,11,20.60
2010,09,30,16,12,20.70
2010,09,30,16,13,20.70
2010,09,30,16,14,20.70
2010,09,30,16,15,20.70
2010,09,30,16,16,20.70
2010,09,30,16,17,20.70
2010,09,30,16,18,20.70
2010,09,30,16,19,20.70
2010,09,30,16,20,20.70
2010,09,30,16,21,20.60
2010,09,30,16,22,20.60
2010,09,30,16,23,20.60
2010,09,30,16,24,20.70
2010,09,30,16,25,20.70
2010,09,30,16,26,20.70
2010,09,30,16,27,20.60
2010,09,30,16,28,20.60
2010,09,30,16,29,20.60
2010,09,30,16,30,20.60
2010,09,30,16,31,20.60
2010,09,30,16,32,20.60
2010,09,30,16,33,20.60
2010,09,30,16,34,20.60
2010,09,30,16,35,20.60
2010,09,30,16,36,20.60
2010,09,30,16,37,20.60
2010,09,30,16,38,20.60
2010,09,30,16,39,20.60
2010,09,30,16,40,20.70
2010,09,30,16,41,20.70
2010,09,30,16,42,20.70
2010,09,30,16,43,20.70
2010,09,30,16,44,20.70
2010,09,30,16,45,20.70
2010,09,30,16,46,20.70
2010,09,30,16,47,20.60
2010,09,30,16,48,20.60
2010,09,30,16,49,20.60
2010,09,30,16,50,20.60
2010,09,30,16,51,20.60
2010,09,30,16,52,20.60
2010,09,30,16,53,20.60
2010,09,30,16,54,20.50
2010,09,30,16,55,20.50
2010,09,30,16,56,20.40
2010,09,30,16,57,20.30
2010,09,30,16,58,20.30
2010,09,30,16,59,20.30
2010,09,30,17,00,20.30
2010,09,30,17,01,20.30
2010,09,30,17,02,20.30
2010,09,30,17,03,20.30
2010,09,30,17,04,20.40
2010,09,30,17,05,20.40
2010,09,30,17,06,20.40
2010,09,30,17,07,20.40
2010,09,30,17,08,20.40
2010,09,30,17,09,20.40
2010,09,30,17,10,20.40
2010,09,30,17,11,20.40
2010,09,30,17,12,20.30
2010,09,30,17,13,20.30
2010,09,30,17,14,20.30
2010,09,30,17,15,20.20
2010,09,30,17,16,20.20
2010,09,30,17,17,20.20
2010,09,30,17,18,20.20
2010,09,30,17,19,20.20
2010,09,30,17,20,20.20
2010,09,30,17,21,20.20
2010,09,30,17,22,20.20
2010,09,30,17,23,20.20
2010,09,30,17,24,20.20
2010,09,30,17,25,20.20
2010,09,30,17,26,20.30
2010,09,30,17,27,20.30
2010,09,30,17,28,20.30
2010,09,30,17,29,20.30
2010,09,30,17,30,20.30
2010,09,30,17,31,20.30
2010,09,30,17,32,20.30
2010,09,30,17,33,20.30
2010,09,30,17,34,20.30
2010,09,30,17,35,20.30
2010,09,30,17,36,20.30
2010,09,30,17,37,20.30
2010,09,30,17,38,20.30
2010,09,30,17,39,20.30
2010,09,30,17,40,20.30
2010,09,30,17,41,20.20